"Time","Value","Approval","myLocation"
"2023-03-30 00:00",7.3861580401743,"Approved","OW458"
"2023-03-30 01:00",7.38415718992454,"Approved","OW458"
"2023-03-30 02:00",7.38215633967478,"Approved","OW458"
"2023-03-30 03:00",7.38215548942502,"Approved","OW458"
"2023-03-30 04:00",7.38715463917526,"Approved","OW458"
"2023-03-30 05:00",7.3901537889255,"Approved","OW458"
"2023-03-30 06:00",7.39115293867574,"Approved","OW458"
"2023-03-30 07:00",7.39215208842598,"Approved","OW458"
"2023-03-30 08:00",7.39315123817621,"Approved","OW458"
"2023-03-30 09:00",7.39115038792645,"Approved","OW458"
"2023-03-30 10:00",7.39114953767669,"Approved","OW458"
"2023-03-30 11:00",7.39114868742693,"Approved","OW458"
"2023-03-30 12:00",7.39214783717717,"Approved","OW458"
"2023-03-30 13:00",7.39414698692741,"Approved","OW458"
"2023-03-30 14:00",7.39714613667765,"Approved","OW458"
"2023-03-30 15:00",7.40014528642789,"Approved","OW458"
"2023-03-30 16:00",7.40214443617813,"Approved","OW458"
"2023-03-30 17:00",7.40314358592837,"Approved","OW458"
"2023-03-30 18:00",7.40514273567861,"Approved","OW458"
"2023-03-30 19:00",7.40814188542884,"Approved","OW458"
"2023-03-30 20:00",7.41114103517908,"Approved","OW458"
"2023-03-30 21:00",7.41314018492932,"Approved","OW458"
"2023-03-30 22:00",7.41313933467956,"Approved","OW458"
"2023-03-30 23:00",7.4121384844298,"Approved","OW458"
"2023-03-31 00:00",7.41313763418004,"Approved","OW458"
"2023-03-31 01:00",7.41413678393028,"Approved","OW458"
"2023-03-31 02:00",7.41513593368052,"Approved","OW458"
"2023-03-31 03:00",7.41913508343076,"Approved","OW458"
"2023-03-31 04:00",7.426134233181,"Approved","OW458"
"2023-03-31 05:00",7.43213338293124,"Approved","OW458"
"2023-03-31 06:00",7.43313253268148,"Approved","OW458"
"2023-03-31 07:00",7.43513168243171,"Approved","OW458"
"2023-03-31 08:00",7.44013083218195,"Approved","OW458"
"2023-03-31 09:00",7.44412998193219,"Approved","OW458"
"2023-03-31 10:00",7.44112913168243,"Approved","OW458"
"2023-03-31 11:00",7.44012828143267,"Approved","OW458"
"2023-03-31 12:00",7.44112743118291,"Approved","OW458"
"2023-03-31 13:00",7.44012658093315,"Approved","OW458"
"2023-03-31 14:00",7.44012573068339,"Approved","OW458"
"2023-03-31 15:00",7.44212488043363,"Approved","OW458"
"2023-03-31 16:00",7.44212403018387,"Approved","OW458"
"2023-03-31 17:00",7.44112317993411,"Approved","OW458"
"2023-03-31 18:00",7.44212232968435,"Approved","OW458"
"2023-03-31 19:00",7.44312147943458,"Approved","OW458"
"2023-03-31 20:00",7.44212062918482,"Approved","OW458"
"2023-03-31 21:00",7.44111977893506,"Approved","OW458"
"2023-03-31 22:00",7.4381189286853,"Approved","OW458"
"2023-03-31 23:00",7.43211807843554,"Approved","OW458"
"2023-04-01 00:00",7.42811722818578,"Approved","OW458"
"2023-04-01 01:00",7.42011637793602,"Approved","OW458"
"2023-04-01 02:00",7.41211552768626,"Approved","OW458"
"2023-04-01 03:00",7.4061146774365,"Approved","OW458"
"2023-04-01 04:00",7.40311382718674,"Approved","OW458"
"2023-04-01 05:00",7.40011297693697,"Approved","OW458"
"2023-04-01 06:00",7.40211212668721,"Approved","OW458"
"2023-04-01 07:00",7.40311127643745,"Approved","OW458"
"2023-04-01 08:00",7.40811042618769,"Approved","OW458"
"2023-04-01 09:00",7.41410957593793,"Approved","OW458"
"2023-04-01 10:00",7.41810872568817,"Approved","OW458"
"2023-04-01 11:00",7.42010787543841,"Approved","OW458"
"2023-04-01 12:00",7.42210702518865,"Approved","OW458"
"2023-04-01 13:00",7.42210617493889,"Approved","OW458"
"2023-04-01 14:00",7.42510532468913,"Approved","OW458"
"2023-04-01 15:00",7.42910447443937,"Approved","OW458"
"2023-04-01 16:00",7.43010362418961,"Approved","OW458"
"2023-04-01 17:00",7.43310277393985,"Approved","OW458"
"2023-04-01 18:00",7.43710192369008,"Approved","OW458"
"2023-04-01 19:00",7.43710107344032,"Approved","OW458"
"2023-04-01 20:00",7.43810022319056,"Approved","OW458"
"2023-04-01 21:00",7.4360993729408,"Approved","OW458"
"2023-04-01 22:00",7.43809852269104,"Approved","OW458"
"2023-04-01 23:00",7.43709767244128,"Approved","OW458"
"2023-04-02 00:00",7.44009682219152,"Approved","OW458"
"2023-04-02 01:00",7.44409597194176,"Approved","OW458"
"2023-04-02 02:00",7.445095121692,"Approved","OW458"
"2023-04-02 03:00",7.44809427144224,"Approved","OW458"
"2023-04-02 04:00",7.45609342119248,"Approved","OW458"
"2023-04-02 05:00",7.45909257094271,"Approved","OW458"
"2023-04-02 06:00",7.46009172069295,"Approved","OW458"
"2023-04-02 07:00",7.45909087044319,"Approved","OW458"
"2023-04-02 08:00",7.45909002019343,"Approved","OW458"
"2023-04-02 09:00",7.46008916994367,"Approved","OW458"
"2023-04-02 10:00",7.45408831969391,"Approved","OW458"
"2023-04-02 11:00",7.45408746944415,"Approved","OW458"
"2023-04-02 12:00",7.45208661919439,"Approved","OW458"
"2023-04-02 13:00",7.45108576894463,"Approved","OW458"
"2023-04-02 14:00",7.45108491869487,"Approved","OW458"
"2023-04-02 15:00",7.45308406844511,"Approved","OW458"
"2023-04-02 16:00",7.45408321819535,"Approved","OW458"
"2023-04-02 17:00",7.45508236794558,"Approved","OW458"
"2023-04-02 18:00",7.45608151769582,"Approved","OW458"
"2023-04-02 19:00",7.45708066744606,"Approved","OW458"
"2023-04-02 20:00",7.4550798171963,"Approved","OW458"
"2023-04-02 21:00",7.45407896694654,"Approved","OW458"
"2023-04-02 22:00",7.46007811669678,"Approved","OW458"
"2023-04-02 23:00",7.46107726644702,"Approved","OW458"
"2023-04-03 00:00",7.45807641619726,"Approved","OW458"
"2023-04-03 01:00",7.4570755659475,"Approved","OW458"
"2023-04-03 02:00",7.45807471569774,"Approved","OW458"
"2023-04-03 03:00",7.46107386544798,"Approved","OW458"
"2023-04-03 04:00",7.46807301519821,"Approved","OW458"
"2023-04-03 05:00",7.47107216494845,"Approved","OW458"
"2023-04-03 06:00",7.47407131469869,"Approved","OW458"
"2023-04-03 07:00",7.47707046444893,"Approved","OW458"
"2023-04-03 08:00",7.48006961419917,"Approved","OW458"
"2023-04-03 09:00",7.48006876394941,"Approved","OW458"
"2023-04-03 10:00",7.48306791369965,"Approved","OW458"
"2023-04-03 11:00",7.48506706344989,"Approved","OW458"
"2023-04-03 12:00",7.48906621320013,"Approved","OW458"
"2023-04-03 13:00",7.49306536295037,"Approved","OW458"
"2023-04-03 14:00",7.49606451270061,"Approved","OW458"
"2023-04-03 15:00",7.50106366245084,"Approved","OW458"
"2023-04-03 16:00",7.50206281220108,"Approved","OW458"
"2023-04-03 17:00",7.50406196195132,"Approved","OW458"
"2023-04-03 18:00",7.50606111170156,"Approved","OW458"
"2023-04-03 19:00",7.5090602614518,"Approved","OW458"
"2023-04-03 20:00",7.50705941120204,"Approved","OW458"
"2023-04-03 21:00",7.50405856095228,"Approved","OW458"
"2023-04-03 22:00",7.50005771070252,"Approved","OW458"
"2023-04-03 23:00",7.49605686045276,"Approved","OW458"
"2023-04-04 00:00",7.492056010203,"Approved","OW458"
"2023-04-04 01:00",7.49205515995324,"Approved","OW458"
"2023-04-04 02:00",7.49105430970348,"Approved","OW458"
"2023-04-04 03:00",7.49305345945371,"Approved","OW458"
"2023-04-04 04:00",7.49705260920395,"Approved","OW458"
"2023-04-04 05:00",7.49805175895419,"Approved","OW458"
"2023-04-04 06:00",7.49605090870443,"Approved","OW458"
"2023-04-04 07:00",7.49805005845467,"Approved","OW458"
"2023-04-04 08:00",7.50004920820491,"Approved","OW458"
"2023-04-04 09:00",7.50204835795515,"Approved","OW458"
"2023-04-04 10:00",7.50304750770539,"Approved","OW458"
"2023-04-04 11:00",7.50604665745563,"Approved","OW458"
"2023-04-04 12:00",7.50904580720587,"Approved","OW458"
"2023-04-04 13:00",7.51204495695611,"Approved","OW458"
"2023-04-04 14:00",7.51704410670635,"Approved","OW458"
"2023-04-04 15:00",7.52204325645658,"Approved","OW458"
"2023-04-04 16:00",7.52804240620682,"Approved","OW458"
"2023-04-04 17:00",7.53204155595706,"Approved","OW458"
"2023-04-04 18:00",7.5350407057073,"Approved","OW458"
"2023-04-04 19:00",7.53503985545754,"Approved","OW458"
"2023-04-04 20:00",7.53303900520778,"Approved","OW458"
"2023-04-04 21:00",7.53103815495802,"Approved","OW458"
"2023-04-04 22:00",7.53003730470826,"Approved","OW458"
"2023-04-04 23:00",7.5300364544585,"Approved","OW458"
"2023-04-05 00:00",7.52903560420874,"Approved","OW458"
"2023-04-05 01:00",7.52903475395898,"Approved","OW458"
"2023-04-05 02:00",7.52903390370921,"Approved","OW458"
"2023-04-05 03:00",7.53003305345945,"Approved","OW458"
"2023-04-05 04:00",7.53403220320969,"Approved","OW458"
"2023-04-05 05:00",7.53603135295993,"Approved","OW458"
"2023-04-05 06:00",7.53603050271017,"Approved","OW458"
"2023-04-05 07:00",7.53702965246041,"Approved","OW458"
"2023-04-05 08:00",7.53902880221065,"Approved","OW458"
"2023-04-05 09:00",7.54002795196089,"Approved","OW458"
"2023-04-05 10:00",7.53802710171113,"Approved","OW458"
"2023-04-05 11:00",7.54202625146137,"Approved","OW458"
"2023-04-05 12:00",7.53902540121161,"Approved","OW458"
"2023-04-05 13:00",7.53902455096185,"Approved","OW458"
"2023-04-05 14:00",7.53802370071208,"Approved","OW458"
"2023-04-05 15:00",7.53802285046232,"Approved","OW458"
"2023-04-05 16:00",7.53702200021256,"Approved","OW458"
"2023-04-05 17:00",7.5360211499628,"Approved","OW458"
"2023-04-05 18:00",7.53502029971304,"Approved","OW458"
"2023-04-05 19:00",7.53101944946328,"Approved","OW458"
"2023-04-05 20:00",7.52601859921352,"Approved","OW458"
"2023-04-05 21:00",7.52501774896376,"Approved","OW458"
"2023-04-05 22:00",7.518016898714,"Approved","OW458"
"2023-04-05 23:00",7.51201604846424,"Approved","OW458"
"2023-04-06 00:00",7.50701519821448,"Approved","OW458"
"2023-04-06 01:00",7.50401434796471,"Approved","OW458"
"2023-04-06 02:00",7.49901349771495,"Approved","OW458"
"2023-04-06 03:00",7.49301264746519,"Approved","OW458"
"2023-04-06 04:00",7.49301179721543,"Approved","OW458"
"2023-04-06 05:00",7.49101094696567,"Approved","OW458"
"2023-04-06 06:00",7.49001009671591,"Approved","OW458"
"2023-04-06 07:00",7.48900924646615,"Approved","OW458"
"2023-04-06 08:00",7.48600839621639,"Approved","OW458"
"2023-04-06 09:00",7.48000754596663,"Approved","OW458"
"2023-04-06 10:00",7.47300669571687,"Approved","OW458"
"2023-04-06 11:00",7.47000584546711,"Approved","OW458"
"2023-04-06 12:00",7.46500499521735,"Approved","OW458"
"2023-04-06 13:00",7.46000414496758,"Approved","OW458"
"2023-04-06 14:00",7.45700329471782,"Approved","OW458"
"2023-04-06 15:00",7.45600244446806,"Approved","OW458"
"2023-04-06 16:00",7.4500015942183,"Approved","OW458"
"2023-04-06 17:00",7.44800074396854,"Approved","OW458"
"2023-04-06 18:00",7.44499989371878,"Approved","OW458"
"2023-04-06 19:00",7.44199904346902,"Approved","OW458"
"2023-04-06 20:00",7.43599819321926,"Approved","OW458"
"2023-04-06 21:00",7.4329973429695,"Approved","OW458"
"2023-04-06 22:00",7.42999649271974,"Approved","OW458"
"2023-04-06 23:00",7.42399564246998,"Approved","OW458"
"2023-04-07 00:00",7.41899479222021,"Approved","OW458"
"2023-04-07 01:00",7.41599394197045,"Approved","OW458"
"2023-04-07 02:00",7.41299309172069,"Approved","OW458"
"2023-04-07 03:00",7.41099224147093,"Approved","OW458"
"2023-04-07 04:00",7.41299139122117,"Approved","OW458"
"2023-04-07 05:00",7.41299054097141,"Approved","OW458"
"2023-04-07 06:00",7.41098969072165,"Approved","OW458"
"2023-04-07 07:00",7.40798884047189,"Approved","OW458"
"2023-04-07 08:00",7.40998799022213,"Approved","OW458"
"2023-04-07 09:00",7.41498713997237,"Approved","OW458"
"2023-04-07 10:00",7.41798628972261,"Approved","OW458"
"2023-04-07 11:00",7.42098543947284,"Approved","OW458"
"2023-04-07 12:00",7.42098458922308,"Approved","OW458"
"2023-04-07 13:00",7.42098373897332,"Approved","OW458"
"2023-04-07 14:00",7.42098288872356,"Approved","OW458"
"2023-04-07 15:00",7.4219820384738,"Approved","OW458"
"2023-04-07 16:00",7.42398118822404,"Approved","OW458"
"2023-04-07 17:00",7.42298033797428,"Approved","OW458"
"2023-04-07 18:00",7.42597948772452,"Approved","OW458"
"2023-04-07 19:00",7.42797863747476,"Approved","OW458"
"2023-04-07 20:00",7.427977787225,"Approved","OW458"
"2023-04-07 21:00",7.42697693697524,"Approved","OW458"
"2023-04-07 22:00",7.42497608672548,"Approved","OW458"
"2023-04-07 23:00",7.42297523647571,"Approved","OW458"
"2023-04-08 00:00",7.42197438622595,"Approved","OW458"
"2023-04-08 01:00",7.42197353597619,"Approved","OW458"
"2023-04-08 02:00",7.42597268572643,"Approved","OW458"
"2023-04-08 03:00",7.42997183547667,"Approved","OW458"
"2023-04-08 04:00",7.43597098522691,"Approved","OW458"
"2023-04-08 05:00",7.44297013497715,"Approved","OW458"
"2023-04-08 06:00",7.44396928472739,"Approved","OW458"
"2023-04-08 07:00",7.44296843447763,"Approved","OW458"
"2023-04-08 08:00",7.44196758422787,"Approved","OW458"
"2023-04-08 09:00",7.44296673397811,"Approved","OW458"
"2023-04-08 10:00",7.44196588372835,"Approved","OW458"
"2023-04-08 11:00",7.44196503347858,"Approved","OW458"
"2023-04-08 12:00",7.44096418322882,"Approved","OW458"
"2023-04-08 13:00",7.43696333297906,"Approved","OW458"
"2023-04-08 14:00",7.4379624827293,"Approved","OW458"
"2023-04-08 15:00",7.43596163247954,"Approved","OW458"
"2023-04-08 16:00",7.43996078222978,"Approved","OW458"
"2023-04-08 17:00",7.44495993198002,"Approved","OW458"
"2023-04-08 18:00",7.44995908173026,"Approved","OW458"
"2023-04-08 19:00",7.4559582314805,"Approved","OW458"
"2023-04-08 20:00",7.45395738123074,"Approved","OW458"
"2023-04-08 21:00",7.45395653098098,"Approved","OW458"
"2023-04-08 22:00",7.45995568073121,"Approved","OW458"
"2023-04-08 23:00",7.45695483048145,"Approved","OW458"
"2023-04-09 00:00",7.45695398023169,"Approved","OW458"
"2023-04-09 01:00",7.45695312998193,"Approved","OW458"
"2023-04-09 02:00",7.45995227973217,"Approved","OW458"
"2023-04-09 03:00",7.46095142948241,"Approved","OW458"
"2023-04-09 04:00",7.46395057923265,"Approved","OW458"
"2023-04-09 05:00",7.46294972898289,"Approved","OW458"
"2023-04-09 06:00",7.46094887873313,"Approved","OW458"
"2023-04-09 07:00",7.45694802848337,"Approved","OW458"
"2023-04-09 08:00",7.45394717823361,"Approved","OW458"
"2023-04-09 09:00",7.44994632798385,"Approved","OW458"
"2023-04-09 10:00",7.44894547773408,"Approved","OW458"
"2023-04-09 11:00",7.44594462748432,"Approved","OW458"
"2023-04-09 12:00",7.44394377723456,"Approved","OW458"
"2023-04-09 13:00",7.4409429269848,"Approved","OW458"
"2023-04-09 14:00",7.43794207673504,"Approved","OW458"
"2023-04-09 15:00",7.43194122648528,"Approved","OW458"
"2023-04-09 16:00",7.43294037623552,"Approved","OW458"
"2023-04-09 17:00",7.42493952598576,"Approved","OW458"
"2023-04-09 18:00",7.417938675736,"Approved","OW458"
"2023-04-09 19:00",7.41493782548624,"Approved","OW458"
"2023-04-09 20:00",7.40893697523648,"Approved","OW458"
"2023-04-09 21:00",7.41393612498671,"Approved","OW458"
"2023-04-09 22:00",7.41193527473695,"Approved","OW458"
"2023-04-09 23:00",7.41893442448719,"Approved","OW458"
"2023-04-10 00:00",7.41993357423743,"Approved","OW458"
"2023-04-10 01:00",7.42993272398767,"Approved","OW458"
"2023-04-10 02:00",7.43793187373791,"Approved","OW458"
"2023-04-10 03:00",7.44793102348815,"Approved","OW458"
"2023-04-10 04:00",7.46693017323839,"Approved","OW458"
"2023-04-10 05:00",7.47892932298863,"Approved","OW458"
"2023-04-10 06:00",7.48592847273887,"Approved","OW458"
"2023-04-10 07:00",7.48792762248911,"Approved","OW458"
"2023-04-10 08:00",7.48992677223934,"Approved","OW458"
"2023-04-10 09:00",7.48792592198958,"Approved","OW458"
"2023-04-10 10:00",7.48192507173982,"Approved","OW458"
"2023-04-10 11:00",7.47892422149006,"Approved","OW458"
"2023-04-10 12:00",7.4739233712403,"Approved","OW458"
"2023-04-10 13:00",7.46592252099054,"Approved","OW458"
"2023-04-10 14:00",7.45992167074078,"Approved","OW458"
"2023-04-10 15:00",7.45892082049102,"Approved","OW458"
"2023-04-10 16:00",7.45491997024126,"Approved","OW458"
"2023-04-10 17:00",7.4499191199915,"Approved","OW458"
"2023-04-10 18:00",7.44691826974174,"Approved","OW458"
"2023-04-10 19:00",7.44591741949198,"Approved","OW458"
"2023-04-10 20:00",7.43891656924222,"Approved","OW458"
"2023-04-10 21:00",7.43391571899245,"Approved","OW458"
"2023-04-10 22:00",7.42491486874269,"Approved","OW458"
"2023-04-10 23:00",7.42091401849293,"Approved","OW458"
"2023-04-11 00:00",7.41291316824317,"Approved","OW458"
"2023-04-11 01:00",7.40791231799341,"Approved","OW458"
"2023-04-11 02:00",7.39991146774365,"Approved","OW458"
"2023-04-11 03:00",7.39491061749389,"Approved","OW458"
"2023-04-11 04:00",7.39290976724413,"Approved","OW458"
"2023-04-11 05:00",7.39690891699437,"Approved","OW458"
"2023-04-11 06:00",7.39190806674461,"Approved","OW458"
"2023-04-11 07:00",7.38490721649485,"Approved","OW458"
"2023-04-11 08:00",7.38890636624508,"Approved","OW458"
"2023-04-11 09:00",7.38790551599532,"Approved","OW458"
"2023-04-11 10:00",7.38590466574556,"Approved","OW458"
"2023-04-11 11:00",7.3829038154958,"Approved","OW458"
"2023-04-11 12:00",7.37990296524604,"Approved","OW458"
"2023-04-11 13:00",7.37690211499628,"Approved","OW458"
"2023-04-11 14:00",7.37590126474652,"Approved","OW458"
"2023-04-11 15:00",7.37890041449676,"Approved","OW458"
"2023-04-11 16:00",7.384899564247,"Approved","OW458"
"2023-04-11 17:00",7.39289871399724,"Approved","OW458"
"2023-04-11 18:00",7.40389786374748,"Approved","OW458"
"2023-04-11 19:00",7.41489701349771,"Approved","OW458"
"2023-04-11 20:00",7.41589616324795,"Approved","OW458"
"2023-04-11 21:00",7.41689531299819,"Approved","OW458"
"2023-04-11 22:00",7.41989446274843,"Approved","OW458"
"2023-04-11 23:00",7.42189361249867,"Approved","OW458"
"2023-04-12 00:00",7.42089276224891,"Approved","OW458"
"2023-04-12 01:00",7.41989191199915,"Approved","OW458"
"2023-04-12 02:00",7.41789106174939,"Approved","OW458"
"2023-04-12 03:00",7.42089021149963,"Approved","OW458"
"2023-04-12 04:00",7.42588936124987,"Approved","OW458"
"2023-04-12 05:00",7.42988851100011,"Approved","OW458"
"2023-04-12 06:00",7.42688766075035,"Approved","OW458"
"2023-04-12 07:00",7.42088681050058,"Approved","OW458"
"2023-04-12 08:00",7.42088596025082,"Approved","OW458"
"2023-04-12 09:00",7.41788511000106,"Approved","OW458"
"2023-04-12 10:00",7.4138842597513,"Approved","OW458"
"2023-04-12 11:00",7.41488340950154,"Approved","OW458"
"2023-04-12 12:00",7.41588255925178,"Approved","OW458"
"2023-04-12 13:00",7.41888170900202,"Approved","OW458"
"2023-04-12 14:00",7.42088085875226,"Approved","OW458"
"2023-04-12 15:00",7.4238800085025,"Approved","OW458"
"2023-04-12 16:00",7.42587915825274,"Approved","OW458"
"2023-04-12 17:00",7.42587830800298,"Approved","OW458"
"2023-04-12 18:00",7.42487745775322,"Approved","OW458"
"2023-04-12 19:00",7.42587660750345,"Approved","OW458"
"2023-04-12 20:00",7.42087575725369,"Approved","OW458"
"2023-04-12 21:00",7.41887490700393,"Approved","OW458"
"2023-04-12 22:00",7.41787405675417,"Approved","OW458"
"2023-04-12 23:00",7.41687320650441,"Approved","OW458"
"2023-04-13 00:00",7.41187235625465,"Approved","OW458"
"2023-04-13 01:00",7.40687150600489,"Approved","OW458"
"2023-04-13 02:00",7.40587065575513,"Approved","OW458"
"2023-04-13 03:00",7.41186980550537,"Approved","OW458"
"2023-04-13 04:00",7.41186895525561,"Approved","OW458"
"2023-04-13 05:00",7.40986810500585,"Approved","OW458"
"2023-04-13 06:00",7.41386725475608,"Approved","OW458"
"2023-04-13 07:00",7.41186640450632,"Approved","OW458"
"2023-04-13 08:00",7.41086555425656,"Approved","OW458"
"2023-04-13 09:00",7.4098647040068,"Approved","OW458"
"2023-04-13 10:00",7.40986385375704,"Approved","OW458"
"2023-04-13 11:00",7.41186300350728,"Approved","OW458"
"2023-04-13 12:00",7.40686215325752,"Approved","OW458"
"2023-04-13 13:00",7.40686130300776,"Approved","OW458"
"2023-04-13 14:00",7.407860452758,"Approved","OW458"
"2023-04-13 15:00",7.40885960250824,"Approved","OW458"
"2023-04-13 16:00",7.40985875225848,"Approved","OW458"
"2023-04-13 17:00",7.40785790200871,"Approved","OW458"
"2023-04-13 18:00",7.40885705175895,"Approved","OW458"
"2023-04-13 19:00",7.40485620150919,"Approved","OW458"
"2023-04-13 20:00",7.39985535125943,"Approved","OW458"
"2023-04-13 21:00",7.39585450100967,"Approved","OW458"
"2023-04-13 22:00",7.39385365075991,"Approved","OW458"
"2023-04-13 23:00",7.38985280051015,"Approved","OW458"
"2023-04-14 00:00",7.38785195026039,"Approved","OW458"
"2023-04-14 01:00",7.38785110001063,"Approved","OW458"
"2023-04-14 02:00",7.38685024976087,"Approved","OW458"
"2023-04-14 03:00",7.38884939951111,"Approved","OW458"
"2023-04-14 04:00",7.39684854926135,"Approved","OW458"
"2023-04-14 05:00",7.39784769901159,"Approved","OW458"
"2023-04-14 06:00",7.39884684876182,"Approved","OW458"
"2023-04-14 07:00",7.40184599851206,"Approved","OW458"
"2023-04-14 08:00",7.4018451482623,"Approved","OW458"
"2023-04-14 09:00",7.40284429801254,"Approved","OW458"
"2023-04-14 10:00",7.40284344776278,"Approved","OW458"
"2023-04-14 11:00",7.40284259751302,"Approved","OW458"
"2023-04-14 12:00",7.40484174726326,"Approved","OW458"
"2023-04-14 13:00",7.4048408970135,"Approved","OW458"
"2023-04-14 14:00",7.40684004676374,"Approved","OW458"
"2023-04-14 15:00",7.41083919651398,"Approved","OW458"
"2023-04-14 16:00",7.41783834626422,"Approved","OW458"
"2023-04-14 17:00",7.41683749601445,"Approved","OW458"
"2023-04-14 18:00",7.41483664576469,"Approved","OW458"
"2023-04-14 19:00",7.41283579551493,"Approved","OW458"
"2023-04-14 20:00",7.40983494526517,"Approved","OW458"
"2023-04-14 21:00",7.40983409501541,"Approved","OW458"
"2023-04-14 22:00",7.40983324476565,"Approved","OW458"
"2023-04-14 23:00",7.40883239451589,"Approved","OW458"
"2023-04-15 00:00",7.40683154426613,"Approved","OW458"
"2023-04-15 01:00",7.40783069401637,"Approved","OW458"
"2023-04-15 02:00",7.40682984376661,"Approved","OW458"
"2023-04-15 03:00",7.40682899351685,"Approved","OW458"
"2023-04-15 04:00",7.41582814326708,"Approved","OW458"
"2023-04-15 05:00",7.41682729301732,"Approved","OW458"
"2023-04-15 06:00",7.41482644276756,"Approved","OW458"
"2023-04-15 07:00",7.4198255925178,"Approved","OW458"
"2023-04-15 08:00",7.41882474226804,"Approved","OW458"
"2023-04-15 09:00",7.41882389201828,"Approved","OW458"
"2023-04-15 10:00",7.41782304176852,"Approved","OW458"
"2023-04-15 11:00",7.41882219151876,"Approved","OW458"
"2023-04-15 12:00",7.420821341269,"Approved","OW458"
"2023-04-15 13:00",7.42182049101924,"Approved","OW458"
"2023-04-15 14:00",7.42381964076948,"Approved","OW458"
"2023-04-15 15:00",7.42681879051972,"Approved","OW458"
"2023-04-15 16:00",7.42981794026995,"Approved","OW458"
"2023-04-15 17:00",7.43381709002019,"Approved","OW458"
"2023-04-15 18:00",7.43581623977043,"Approved","OW458"
"2023-04-15 19:00",7.43781538952067,"Approved","OW458"
"2023-04-15 20:00",7.44281453927091,"Approved","OW458"
"2023-04-15 21:00",7.44381368902115,"Approved","OW458"
"2023-04-15 22:00",7.44781283877139,"Approved","OW458"
"2023-04-15 23:00",7.44481198852163,"Approved","OW458"
"2023-04-16 00:00",7.44081113827187,"Approved","OW458"
"2023-04-16 01:00",7.43581028802211,"Approved","OW458"
"2023-04-16 02:00",7.43080943777235,"Approved","OW458"
"2023-04-16 03:00",7.42680858752258,"Approved","OW458"
"2023-04-16 04:00",7.42380773727282,"Approved","OW458"
"2023-04-16 05:00",7.42080688702306,"Approved","OW458"
"2023-04-16 06:00",7.4178060367733,"Approved","OW458"
"2023-04-16 07:00",7.41680518652354,"Approved","OW458"
"2023-04-16 08:00",7.41180433627378,"Approved","OW458"
"2023-04-16 09:00",7.40480348602402,"Approved","OW458"
"2023-04-16 10:00",7.39780263577426,"Approved","OW458"
"2023-04-16 11:00",7.3918017855245,"Approved","OW458"
"2023-04-16 12:00",7.38880093527474,"Approved","OW458"
"2023-04-16 13:00",7.38780008502498,"Approved","OW458"
"2023-04-16 14:00",7.37879923477522,"Approved","OW458"
"2023-04-16 15:00",7.36779838452545,"Approved","OW458"
"2023-04-16 16:00",7.36079753427569,"Approved","OW458"
"2023-04-16 17:00",7.36079668402593,"Approved","OW458"
"2023-04-16 18:00",7.36579583377617,"Approved","OW458"
"2023-04-16 19:00",7.36679498352641,"Approved","OW458"